Hourly Data Report for August 31, 2004

SHERBROOKE A
QUEBEC

45°26'00.000" N
71°41'00.000" W
241.40 m
7028124
71610
YSC

Download Data

Hourly Data (August 2004)
Hourly Data Report for August 31, 2004
TIME
LST
Temp Definition
°C
Dew Point Definition
°C
Rel Hum Definition
%
Precip. Amount Definition
mm

Wind Dir Definition
10's deg

Wind Spd Definition
km/h
Visibility Definition
km
Stn Press Definition
kPa
Hmdx Definition


Wind Chill Definition


Weather Definition


00:00 17.8 17.2 96   6 7 6.4 98.66      
01:00 17.7 16.9 95   31 7 3.9 98.71     Moderate Rain
02:00 17.8 17.1 96   9 6 4.8 98.59     Moderate Rain
03:00 17.6 16.9 96   4 6 3.9 98.52     Rain
04:00 17.7 17.0 96   14 6 5.6 98.52     Rain
05:00 17.8 17.1 96     0 2.9 98.51     Rain
06:00 15.6 14.7 94   32 11 8.0 98.55     Drizzle
07:00 14.7 14.0 96   27 13 16.1 98.63     Mostly Cloudy
08:00 14.6 13.7 94   30 17 16.1 98.70     Cloudy
09:00 14.5 13.5 94   29 13 9.7 98.76     Drizzle, Fog
10:00 16.2 14.8 91   27 7 16.1 98.81     Mostly Cloudy
11:00 17.4 14.6 84   28 11 16.1 98.79     Mostly Cloudy
12:00 17.9 13.9 77   34 9 19.3 98.77     Mostly Cloudy
13:00 19.8 14.1 70   31 7 24.1 98.77     Mostly Cloudy
14:00 21.1 14.2 65   26 9 24.1 98.72 25   Mostly Cloudy
15:00 19.9 14.4 71   30 11 24.1 98.69     Mostly Cloudy
16:00 21.5 14.8 66   28 13 24.1 98.67 25   Mostly Cloudy
17:00 20.6 15.2 71   27 4 15.0 98.67 25    
18:00 18.9 14.7 77   27 9 15.0 98.70      
19:00 16.6 14.1 85   27 9 15.0 98.75      
20:00 17.0 13.9 82   24 11 15.0 98.79      
21:00 15.4 13.7 90   22 6 15.0 98.81      
22:00 14.2 12.9 92   28 7 15.0 98.84      
23:00 13.8 12.4 91   28 6 15.0 98.86      

Notes on Data Quality.

Legend

  • E = Estimated
  • M = Missing
  • NA = Not Available*
  • [empty] = Indicates an unobserved value
Date modified: